Theta_e
328 329 329 330 328 327 327 327 327 327 326 323 323 324 325 323 322 324 326 328 329 330 330 330 331 332 333 333 333 336 337 336 336 338 342 339 327 333 339 338 339 337 338 336 336 337 337 339 339 340 339 340 339 339 337 334 331 330 329 327 324 319 318 315 313 317 319 320 322 324 325 324 322 320 319 316 313 312 311 310 311 313 314 313 313 312 312 312 312 311 311 311 311 311 311 311 311
329 329 330 330 328 327 327 327 326 326 325 322 323 325 325 324 323 325 327 330 331 330 331 330 330 331 332 333 332 335 338 337 333 334 339 332 326 337 339 339 339 337 339 338 336 336 335 337 338 339 338 338 337 336 334 331 330 328 327 324 320 317 317 314 316 323 325 327 330 329 328 325 322 318 316 314 312 311 310 310 311 313 314 313 312 312 312 312 311 312 311 311 311 311 311 311 311
329 330 330 330 328 327 328 327 325 323 322 321 323 325 325 325 326 329 331 332 332 331 332 331 331 331 331 333 333 336 339 338 333 331 334 330 326 337 339 339 339 337 340 340 339 336 334 335 336 336 334 334 333 332 331 330 327 325 324 320 317 316 316 315 316 325 327 329 332 329 327 326 321 316 314 313 311 311 310 310 311 313 314 313 312 312 312 312 311 312 311 311 311 311 311 311 311
329 330 329 329 328 328 330 330 328 324 322 321 321 324 324 325 327 331 332 331 332 331 332 332 332 333 331 333 334 337 339 338 336 332 331 329 326 334 338 337 337 338 340 341 340 337 335 334 333 333 332 332 332 331 330 327 323 321 320 316 315 316 316 317 321 326 328 330 331 329 327 324 318 315 313 311 311 311 310 310 311 313 313 313 312 311 311 311 312 311 311 311 310 311 310 311 311
329 329 328 328 329 329 330 330 329 324 322 322 321 324 323 324 328 329 329 330 330 330 332 331 333 334 331 333 335 336 338 338 337 332 330 332 328 332 338 336 337 339 340 341 340 338 336 334 333 333 333 332 332 329 326 322 319 317 315 313 315 315 314 319 327 329 329 330 331 330 328 322 315 313 312 311 311 311 310 310 311 312 312 312 312 311 311 311 311 311 311 311 311 310 310 311 311
329 330 328 328 329 328 329 328 327 324 323 325 323 324 322 323 327 328 327 328 329 331 331 331 333 333 332 333 335 337 338 339 336 332 332 334 326 328 338 336 336 339 340 341 340 339 337 335 334 333 333 332 330 326 321 317 315 314 312 312 314 315 312 317 327 329 330 331 331 331 329 321 313 311 311 311 311 310 310 310 311 311 311 312 312 312 311 311 311 311 311 311 311 311 311 311 310
329 329 330 331 331 329 331 330 329 328 325 325 324 324 323 323 326 327 326 327 328 329 328 330 333 332 334 335 336 337 336 338 337 333 333 333 323 324 335 337 336 338 339 340 339 339 337 335 334 334 333 331 327 320 316 313 312 311 311 312 313 314 311 316 325 328 330 331 332 331 329 322 313 312 311 311 311 310 310 310 310 311 311 311 313 312 311 311 312 311 311 311 311 310 311 310 310
328 328 329 333 334 332 333 332 332 331 326 324 324 324 323 323 325 327 325 326 326 326 325 327 331 330 333 335 338 337 332 336 336 332 334 332 322 318 331 336 335 337 338 340 339 339 337 335 334 334 332 329 322 315 312 311 311 310 310 312 313 313 312 318 325 329 331 332 333 330 328 323 315 314 312 311 311 311 310 310 310 310 311 311 312 312 311 311 312 311 311 311 311 310 311 310 311
328 328 329 333 335 334 334 333 333 331 327 324 323 323 323 323 323 325 325 326 326 325 326 326 328 328 330 335 338 337 332 332 332 331 333 331 322 316 328 336 335 336 338 338 338 338 337 335 334 334 331 326 317 311 309 310 310 310 310 311 312 312 314 318 324 329 331 332 332 329 327 323 318 315 313 311 311 311 311 310 310 311 311 311 311 312 311 311 312 312 311 311 311 310 310 310 311
328 329 330 333 334 333 332 333 333 331 327 325 323 322 322 323 323 324 325 326 326 325 327 326 328 328 327 336 338 338 333 330 330 331 333 329 321 318 328 336 335 335 336 337 336 336 336 335 334 333 330 322 314 310 309 309 309 309 309 311 312 312 314 317 323 329 331 332 332 330 326 323 320 317 313 312 311 311 311 310 311 311 311 311 311 311 311 311 312 311 311 311 310 310 311 310 310
329 330 330 333 333 331 331 332 334 331 327 325 325 323 323 323 323 323 325 326 325 325 329 326 325 327 324 334 340 340 334 330 330 330 332 328 321 321 329 335 335 333 335 336 336 337 337 335 332 329 325 318 312 309 309 309 308 309 309 310 311 311 313 317 324 328 329 331 331 330 327 324 321 317 314 312 311 311 311 311 311 311 311 311 311 312 311 311 312 311 311 311 311 310 310 310 311
330 331 332 334 334 333 333 333 334 333 329 327 325 324 323 323 323 323 324 326 325 324 329 326 324 328 322 330 339 338 334 330 330 329 329 326 321 323 329 334 334 331 333 336 336 337 336 335 332 327 321 315 311 309 309 308 308 309 310 309 311 310 312 318 324 326 327 330 331 330 328 324 321 317 314 312 311 311 311 311 311 311 311 312 312 311 311 311 311 311 311 311 311 310 310 310 311
330 332 334 335 335 335 334 333 335 335 333 330 325 324 324 324 323 324 324 325 325 322 326 325 324 327 324 331 338 336 334 331 329 329 327 323 319 324 332 334 332 331 332 334 336 336 336 334 330 326 319 313 310 309 308 308 308 309 310 309 310 311 312 317 321 323 326 330 331 330 328 324 320 317 314 312 312 311 311 311 311 311 311 312 311 311 311 311 311 311 311 311 311 311 311 310 311
329 331 333 335 335 334 334 334 335 335 332 328 325 323 324 324 323 324 324 324 324 325 326 325 323 325 325 333 338 336 336 332 328 328 325 320 316 325 335 333 330 333 333 333 334 335 335 332 328 324 318 312 309 308 308 308 308 309 309 310 311 312 312 315 318 321 325 329 331 330 328 324 320 318 314 312 312 311 311 311 311 311 311 311 311 312 311 311 311 311 311 311 311 311 311 311 311
328 329 332 334 334 333 334 335 335 334 331 326 325 325 324 325 324 324 324 324 326 327 327 325 324 325 327 333 337 337 336 332 329 328 324 320 319 327 336 334 332 334 332 332 333 334 334 330 326 322 317 312 309 308 308 308 308 309 309 309 311 311 312 313 317 321 324 327 329 329 328 324 320 318 315 314 313 312 311 311 311 311 311 311 311 312 312 311 311 311 311 311 311 311 311 311 311
327 328 332 333 333 332 333 335 334 334 331 325 325 325 325 326 325 325 325 325 327 326 325 326 324 324 331 338 339 338 335 332 330 327 323 322 324 330 334 333 333 333 332 333 334 335 333 329 324 320 317 312 309 309 308 308 308 308 309 309 310 311 312 312 315 321 323 325 328 328 328 325 321 319 317 316 315 312 312 311 311 311 311 311 311 312 312 312 311 311 311 310 311 311 311 311 311
327 329 333 333 332 332 333 334 334 333 329 325 326 325 325 326 324 324 325 325 326 326 323 324 326 323 328 335 336 335 334 332 330 327 325 323 324 331 333 331 331 333 333 334 335 335 333 331 326 320 318 311 309 309 308 308 308 308 308 308 309 310 311 312 314 318 322 324 326 327 328 326 323 321 319 318 316 314 312 311 311 311 311 311 311 312 312 312 312 311 311 311 311 311 311 311 311
327 331 332 332 332 332 332 333 333 333 330 326 326 325 325 326 324 323 324 324 324 325 323 322 326 325 325 329 330 330 330 330 329 328 326 323 322 327 331 331 330 332 334 334 334 335 334 332 328 322 319 313 309 309 309 309 308 308 308 308 308 309 310 312 312 315 317 320 322 325 327 325 324 322 320 318 317 315 313 311 311 311 311 311 311 312 312 312 312 311 311 311 311 311 311 311 311
327 330 332 331 331 331 331 331 331 332 332 329 327 326 326 325 325 323 322 324 323 324 324 323 325 327 325 326 327 326 325 327 328 328 326 324 321 321 325 329 331 332 333 333 333 334 333 332 329 326 321 315 311 311 309 309 309 308 308 308 308 308 309 311 312 313 314 316 318 322 326 325 325 326 324 320 316 315 313 312 311 312 311 311 311 312 312 312 312 312 311 311 311 311 311 311 311
327 329 331 331 330 330 330 331 331 332 332 331 329 326 325 325 325 324 322 323 323 323 324 323 324 327 326 324 323 323 323 324 325 327 327 325 323 321 321 324 328 330 331 331 332 333 332 330 328 327 324 317 314 313 310 310 309 308 308 308 309 309 309 310 311 312 312 313 314 318 323 325 325 328 328 324 319 316 314 312 311 311 311 311 312 311 312 312 312 311 311 311 311 311 311 311 311
327 328 329 330 329 330 330 330 330 331 331 331 329 325 325 326 324 324 323 322 323 323 324 324 323 325 326 325 323 321 321 322 323 325 327 326 325 325 324 323 324 328 331 330 331 333 332 330 328 327 327 321 315 313 310 310 310 309 309 308 309 309 309 309 309 311 311 312 312 314 319 324 325 327 328 327 324 320 317 314 311 311 312 311 312 311 312 312 312 312 311 311 311 311 311 311 311
327 327 328 328 329 329 330 330 329 329 329 329 329 326 325 325 324 324 323 323 324 324 324 324 323 324 325 325 325 323 321 320 321 322 324 325 326 327 327 327 326 327 331 331 330 331 333 333 331 329 328 324 317 314 312 310 310 310 309 309 309 309 310 309 309 310 311 312 313 313 315 321 325 325 326 328 327 324 320 315 313 312 312 312 312 312 312 312 312 312 312 312 311 311 311 311 312
328 327 328 328 328 328 329 329 329 329 328 328 329 328 327 326 324 324 324 323 324 325 325 324 323 324 323 323 324 323 322 320 319 320 320 322 323 325 326 328 328 327 330 331 329 328 329 331 331 330 329 326 322 318 314 311 311 311 310 309 309 310 310 310 310 310 311 311 312 313 314 318 324 324 325 327 326 325 322 317 315 313 312 312 312 312 312 312 312 312 312 312 312 311 311 311 312
328 328 328 328 328 328 329 329 328 328 328 328 329 328 327 326 325 324 324 324 324 325 325 325 324 323 324 325 324 323 321 319 319 318 319 319 320 322 324 327 330 329 329 329 328 326 324 324 325 327 328 327 324 319 316 313 312 311 310 309 309 309 309 310 310 310 311 311 311 314 315 316 320 322 324 325 323 323 322 318 316 314 313 312 313 312 312 312 312 312 312 312 312 312 312 312 312
330 328 328 328 328 328 329 328 327 327 327 328 328 326 325 326 326 326 326 326 326 325 325 326 324 323 326 328 326 323 322 320 319 318 319 319 319 321 324 328 331 332 330 329 329 327 325 322 320 320 321 321 320 317 317 316 315 312 310 309 309 309 309 309 309 309 310 311 311 313 315 316 317 320 322 323 322 322 320 317 315 314 313 313 313 313 313 312 312 312 312 312 312 312 313 313 313
329 328 330 328 328 328 329 329 327 327 326 326 327 325 325 326 327 325 326 327 326 326 325 326 325 324 326 328 327 324 323 322 320 319 319 319 319 321 322 325 329 329 329 330 330 329 328 326 323 318 315 315 316 315 316 317 316 312 309 309 309 309 309 309 309 309 309 310 310 311 313 316 316 318 318 319 320 320 319 316 315 315 314 313 313 313 313 313 312 312 312 313 312 313 313 313 313
326 326 328 326 326 327 328 329 328 328 326 326 326 325 325 327 326 326 327 327 327 327 326 326 325 324 325 326 326 324 323 322 320 320 319 319 319 320 320 320 322 324 327 329 328 329 329 327 326 323 317 313 313 313 312 314 314 312 310 310 309 309 309 309 308 309 309 309 310 311 312 313 315 315 316 317 317 317 317 316 315 314 313 313 313 313 313 313 312 312 312 313 313 313 313 313 313
325 325 325 325 325 326 327 328 329 327 326 326 325 325 325 326 325 325 327 327 326 327 327 327 325 324 324 325 325 324 323 321 321 321 320 319 319 318 318 318 318 320 323 323 323 326 327 326 326 326 322 315 311 311 311 311 312 312 311 310 309 309 309 309 309 308 309 309 310 311 310 311 313 314 315 316 316 315 314 313 313 313 313 313 313 313 313 312 312 312 312 313 313 313 313 313 313
325 325 325 325 325 326 327 327 329 327 326 326 324 324 325 325 325 324 325 326 326 326 326 327 325 324 325 324 325 325 323 322 323 322 320 320 319 319 318 318 317 318 319 319 321 322 323 323 323 325 326 320 313 311 311 311 311 311 310 310 310 309 309 309 308 308 308 308 309 310 310 310 311 312 314 316 315 314 313 312 313 313 313 313 313 313 313 312 312 312 312 313 313 313 313 313 314
326 326 326 326 327 327 327 327 328 328 327 326 325 325 326 325 326 326 325 325 325 325 325 325 326 324 324 324 325 325 325 324 323 321 320 321 320 320 320 319 319 318 318 318 320 320 319 320 320 322 326 324 319 314 312 311 310 311 310 310 310 309 309 309 308 308 308 308 308 309 309 309 309 311 312 314 314 314 313 312 312 312 313 313 313 313 313 313 313 312 312 313 313 313 313 313 314
326 328 327 327 329 328 327 328 328 328 328 326 326 325 327 326 327 327 327 326 325 325 325 325 325 325 324 324 324 325 325 325 323 321 321 321 321 321 321 321 320 319 319 319 319 318 317 317 317 320 323 324 324 321 317 313 310 310 310 310 310 309 309 308 308 308 308 308 308 308 308 308 309 309 310 311 312 313 312 312 312 312 312 313 313 313 313 313 313 313 313 313 313 313 314 314 314
325 329 330 328 329 329 328 328 329 329 328 326 326 325 326 327 327 328 328 328 326 324 325 325 325 325 325 324 323 324 325 325 325 323 321 321 321 321 321 321 321 320 320 319 319 318 317 317 316 318 320 322 324 325 324 319 313 310 310 310 309 309 309 309 309 308 308 308 308 308 308 308 308 309 309 309 310 311 311 311 311 312 312 312 313 312 312 313 312 313 312 313 313 313 313 314 314
326 328 331 329 329 330 328 329 329 329 329 327 325 325 327 327 327 328 328 329 327 325 325 325 325 326 326 325 324 323 324 325 326 325 322 321 321 321 321 321 321 320 320 319 319 319 319 317 316 316 318 320 322 324 326 325 320 314 311 311 310 309 309 309 309 308 309 309 309 310 310 310 309 309 309 309 309 309 310 310 310 311 311 312 312 312 312 312 312 312 313 313 313 313 313 314 314
328 327 329 329 329 330 329 330 328 328 330 329 325 324 326 327 327 327 328 328 328 325 325 326 326 326 327 326 325 324 324 325 326 326 323 321 321 321 321 321 321 320 320 320 319 319 319 319 317 316 317 319 321 322 324 325 325 321 316 312 311 311 310 309 309 309 310 311 311 313 314 314 314 313 312 311 311 310 309 309 309 309 310 310 311 312 312 312 312 312 312 312 313 313 313 313 314
329 329 329 329 328 328 329 328 329 330 330 329 326 324 324 325 326 326 327 327 328 326 325 326 327 326 327 327 325 324 324 325 325 325 324 322 321 321 321 321 321 321 320 320 319 319 319 319 319 317 317 318 320 321 322 324 325 326 322 317 313 312 312 311 310 310 311 313 314 316 317 317 319 319 318 317 316 314 313 311 310 309 309 309 310 310 311 311 311 312 312 312 312 312 313 313 313
328 329 329 329 329 329 328 327 330 332 331 329 327 326 327 327 326 325 326 326 327 328 327 326 327 327 327 328 327 326 325 325 324 324 324 324 323 322 321 321 321 321 321 320 319 319 319 319 320 318 317 317 318 319 321 323 324 326 326 323 318 314 313 312 312 311 311 314 316 317 318 319 320 320 320 320 319 319 318 316 314 312 310 309 308 309 309 310 311 311 311 311 312 312 312 312 313
327 328 328 329 328 328 327 328 331 331 329 329 327 328 328 328 328 326 326 326 326 327 327 327 327 327 328 328 328 328 327 326 325 324 324 325 325 324 323 322 322 322 322 321 320 320 320 319 319 319 318 316 316 318 320 323 325 326 327 326 322 316 314 313 313 313 313 314 316 317 318 319 320 320 321 321 320 321 321 320 319 317 315 313 311 310 309 308 309 310 311 311 311 312 312 312 312
326 326 328 328 328 328 327 329 331 329 328 329 328 329 329 327 328 327 327 327 327 326 327 327 327 327 328 328 328 328 328 327 327 325 324 325 325 325 326 326 325 325 324 323 322 322 322 321 321 320 320 318 317 317 317 320 322 324 326 327 325 320 317 315 314 314 314 315 317 317 319 319 319 320 320 321 321 321 321 321 321 320 319 318 316 314 312 310 309 309 309 310 311 311 311 312 312
326 327 328 328 327 327 327 328 329 328 329 330 330 330 329 327 327 327 327 327 328 328 327 328 328 327 327 328 328 328 328 328 328 327 325 325 325 326 327 328 328 328 327 327 326 324 323 323 323 323 323 322 321 319 318 317 318 320 322 324 325 325 322 320 319 318 318 317 318 318 319 319 319 320 320 321 321 321 321 321 321 321 320 320 319 318 316 315 313 311 309 309 309 310 310 311 311
327 327 327 327 326 327 328 328 328 328 329 330 330 330 328 327 327 327 327 327 327 328 328 328 328 328 328 327 327 328 328 328 328 327 327 326 326 326 326 328 328 329 328 328 327 326 325 324 324 324 324 324 324 323 321 319 319 318 318 319 322 325 326 326 325 324 322 321 321 320 320 320 320 320 320 321 320 321 321 321 321 320 320 320 320 320 319 319 317 316 313 311 309 309 309 309 310
327 327 327 326 325 325 326 326 326 327 328 328 329 330 329 327 327 327 326 326 326 327 328 328 329 329 328 328 327 327 327 328 328 328 328 327 327 327 327 327 327 328 328 328 327 327 326 326 326 326 326 326 325 326 325 323 321 319 319 319 319 321 323 325 326 326 325 325 324 323 323 322 322 321 321 321 321 321 321 321 321 321 320 320 320 320 320 320 320 319 317 315 313 311 310 309 309
326 326 326 325 325 325 325 326 326 327 328 327 329 332 330 327 328 328 326 326 326 327 327 327 328 328 329 329 328 327 327 328 328 328 328 328 328 327 327 327 327 327 327 328 328 328 328 328 328 327 327 327 326 326 326 324 323 321 321 320 319 319 320 321 322 322 321 322 322 322 323 323 323 323 323 322 323 323 323 323 322 322 322 321 321 321 321 320 320 320 319 318 317 315 312 311 310
326 326 325 325 325 325 325 326 327 328 328 327 329 331 330 327 327 328 327 328 327 327 327 327 327 328 328 329 328 328 328 328 328 328 328 328 328 328 327 327 327 327 327 327 327 328 328 328 328 328 328 328 327 326 326 326 325 324 322 321 320 320 319 318 318 317 316 316 317 319 319 320 321 321 321 322 322 322 323 323 323 323 323 322 322 322 322 321 321 320 320 319 319 318 316 314 313
325 325 325 325 325 325 326 325 326 327 326 326 328 330 331 330 328 327 327 328 328 328 328 328 327 328 328 328 328 329 328 328 328 328 328 328 328 328 328 328 327 327 327 327 327 327 327 327 327 328 329 328 328 327 327 327 327 326 324 323 322 321 320 319 318 318 317 316 316 316 316 316 316 317 317 318 318 318 319 319 320 321 321 321 321 321 321 321 321 320 320 320 319 319 318 317 316
325 325 326 325 324 324 325 325 325 325 326 327 326 328 332 330 327 327 328 327 328 328 328 328 327 328 329 328 328 328 328 328 327 328 328 327 328 328 327 328 328 327 327 327 327 326 326 326 327 327 328 329 328 328 328 328 327 327 325 324 323 323 322 321 319 319 318 318 317 316 316 315 315 314 314 314 315 315 315 315 316 316 316 317 317 318 318 319 319 319 319 318 318 318 318 318 318
324 325 325 324 327 327 326 326 326 325 327 327 325 326 330 329 325 326 328 327 327 327 326 327 327 327 329 329 328 329 328 328 327 328 328 327 327 327 327 327 327 327 327 326 327 326 326 326 326 327 327 328 329 329 328 328 328 327 326 325 324 324 323 322 321 319 319 319 318 318 317 316 316 315 314 314 314 314 314 314 314 314 314 314 315 315 316 317 317 317 317 316 316 317 318 318 319
323 325 325 326 329 330 329 327 325 326 328 327 324 324 328 329 326 324 326 326 325 326 326 327 327 326 328 329 329 329 328 328 328 328 328 327 327 326 326 326 326 326 326 326 326 326 326 326 326 326 326 327 327 328 329 329 328 328 327 326 325 324 324 323 322 320 319 319 319 318 318 317 317 316 315 315 315 315 315 315 315 315 314 314 314 314 314 315 315 315 315 315 316 316 317 318 319
323 325 326 326 327 328 328 326 325 327 328 327 325 323 326 328 327 324 325 325 324 325 326 328 328 326 327 328 328 329 329 328 328 328 328 328 327 327 327 326 325 326 325 326 326 326 326 326 326 326 326 326 326 327 328 329 329 329 328 327 326 325 324 323 323 322 321 320 319 319 318 318 317 317 316 316 315 315 316 317 317 316 316 315 315 314 314 315 315 315 316 315 315 315 316 317 317
323 325 327 325 325 326 325 325 326 327 327 328 327 326 326 327 325 324 325 324 324 324 324 326 327 326 327 328 328 328 328 328 328 328 328 327 327 327 327 326 326 326 326 326 326 326 326 326 326 326 326 326 325 326 327 328 329 329 329 328 328 327 325 323 323 322 322 321 320 320 319 319 318 318 317 317 316 316 317 319 319 318 318 317 316 315 315 315 315 316 316 315 315 315 316 316 316
322 324 325 324 324 324 323 323 324 325 324 326 327 326 328 327 324 324 324 323 324 323 323 325 325 326 327 328 328 328 327 327 328 327 327 327 327 327 327 327 327 327 326 326 326 326 326 326 326 326 326 326 326 327 327 328 329 329 329 329 329 328 327 325 324 323 322 322 321 321 320 320 319 318 318 317 317 316 317 319 318 319 319 318 317 317 316 316 315 315 316 316 316 315 316 316 316
321 322 323 323 322 324 324 323 323 324 325 326 326 326 329 328 325 325 324 323 323 323 324 324 324 326 327 327 327 327 327 327 327 327 327 327 327 327 327 327 327 327 327 327 326 326 326 326 326 326 326 326 326 327 327 327 328 328 329 329 329 329 328 327 325 324 323 322 321 322 322 321 320 320 319 318 318 317 318 318 318 319 319 318 318 318 318 317 317 316 316 317 316 316 317 317 317
322 322 323 323 322 322 324 324 325 326 327 327 327 327 329 326 323 325 325 324 324 323 323 323 323 324 325 326 326 326 327 326 326 327 327 327 327 327 327 328 327 327 326 326 326 326 326 326 326 326 326 326 326 327 327 328 328 328 328 329 329 329 328 328 326 325 324 323 323 322 322 322 322 322 321 320 318 317 318 318 318 319 319 319 318 318 319 319 318 318 317 317 317 317 318 318 318
323 323 323 323 321 321 323 323 323 324 324 325 325 326 328 327 325 324 324 325 326 326 324 323 323 323 323 324 325 326 326 325 326 325 325 326 327 328 328 328 328 327 326 325 325 326 326 326 326 326 326 326 326 327 327 327 327 328 328 328 329 329 329 328 327 326 325 324 324 323 323 322 322 322 322 321 320 319 318 318 319 320 320 319 318 318 319 320 320 320 319 318 317 318 319 318 319
323 323 322 321 321 321 322 323 322 322 322 323 322 323 328 330 329 326 325 326 327 327 326 325 324 323 324 324 325 326 326 326 326 325 326 326 326 327 328 328 327 326 325 325 325 326 326 326 326 326 326 326 326 326 327 327 327 327 328 328 328 329 329 328 328 327 326 325 325 324 324 323 323 322 322 322 321 320 320 319 320 320 320 320 318 318 320 320 321 321 321 320 319 320 320 319 320
322 323 321 321 323 322 322 322 323 323 322 322 321 321 324 327 327 325 326 327 327 327 326 326 326 324 324 325 325 326 326 326 326 326 326 326 326 327 326 326 326 325 325 325 325 325 325 325 325 325 326 325 325 325 326 327 327 327 327 327 327 328 328 328 328 327 326 326 325 325 325 324 324 323 323 322 322 322 322 321 321 321 322 321 319 318 319 321 322 322 322 322 321 320 320 320 320
321 323 322 321 322 323 322 322 322 322 322 323 323 322 322 324 322 322 324 325 326 327 326 326 326 325 324 325 326 326 326 326 326 326 326 325 325 326 325 325 325 324 324 323 322 322 322 323 324 325 325 325 325 325 325 326 326 326 326 326 326 326 326 326 327 326 326 326 325 325 325 325 325 324 324 324 323 323 323 323 322 322 322 322 321 320 320 321 322 323 323 323 322 321 321 320 319
321 322 322 322 322 324 324 322 321 321 322 322 323 323 323 323 322 322 323 324 325 327 327 327 326 324 325 326 326 326 326 326 325 326 325 324 325 325 325 325 324 323 323 322 321 320 320 322 323 324 325 325 325 326 325 326 326 326 326 326 326 326 325 325 325 326 326 326 326 325 325 325 325 324 325 324 324 324 324 323 323 322 322 322 322 321 321 321 322 323 323 323 322 322 322 321 320
320 320 321 321 322 324 324 323 322 322 322 321 322 322 323 323 324 323 323 324 325 325 327 327 325 324 325 325 325 325 325 326 325 325 325 325 325 325 325 324 324 324 322 320 320 321 321 323 325 325 325 325 326 326 325 325 325 325 325 326 326 326 325 324 324 324 325 325 325 324 324 324 324 324 324 324 324 324 324 323 323 322 322 322 322 321 321 321 322 323 323 323 322 322 322 321 321
Wind_Speed
11 12 12 12 12 16 11 3 5 2 3 4 0 4 3 3 2 2 5 3 2 6 8 5 8 8 5 3 6 14 13 8 4 2 3 7 20 23 17 16 16 13 17 18 16 16 16 16 16 15 14 12 11 9 7 4 3 2 2 3 4 4 5 6 7 8 10 10 8 7 7 6 5 5 6 6 7 8 9 10 10 10 10 10 10 11 12 13 14 14 14 15 15 15 15 16 16
11 12 12 12 11 11 9 3 2 2 3 2 3 4 4 2 1 3 5 4 5 7 8 6 5 5 4 3 3 9 12 10 8 8 11 16 25 23 16 17 15 14 15 16 16 15 15 15 16 15 14 13 10 8 6 4 3 1 1 2 3 3 4 6 7 9 10 10 9 7 6 5 5 5 6 7 8 9 9 10 9 9 9 9 10 11 12 13 13 13 14 14 14 15 15 16 16
11 12 12 12 11 9 9 4 2 4 4 1 4 2 3 3 4 6 8 9 9 8 7 6 3 2 1 1 2 6 7 8 9 10 16 19 25 25 17 15 15 15 14 13 15 16 16 16 16 15 13 11 9 7 5 4 2 1 0 1 1 3 4 7 8 9 9 9 8 6 5 3 4 5 6 7 8 9 9 9 8 8 8 9 10 11 11 12 12 12 13 13 14 15 15 16 16
11 11 12 13 12 7 5 3 3 4 4 1 3 2 2 3 7 9 10 10 8 6 5 3 2 1 3 3 5 8 8 7 7 6 13 17 22 27 19 15 16 15 14 12 13 16 17 17 16 13 11 9 8 6 4 3 2 1 1 1 2 3 5 8 9 9 8 9 8 5 4 4 5 6 6 7 8 8 9 9 8 7 8 9 9 10 11 11 11 12 12 13 14 15 16 16 16
10 10 11 12 8 5 3 2 3 3 3 2 3 3 3 4 7 8 8 8 5 4 2 2 2 2 1 4 5 6 6 7 6 4 12 13 19 27 20 17 18 16 14 12 13 13 15 17 14 13 11 9 7 5 4 3 2 3 3 2 3 4 7 10 10 9 8 9 7 6 6 6 6 7 7 7 7 8 8 9 8 7 7 8 9 9 9 10 10 11 12 13 13 14 15 16 16
10 11 9 9 8 6 4 2 4 3 1 3 3 3 4 5 8 9 7 7 5 3 1 1 1 1 3 4 5 7 6 5 6 6 11 11 19 27 20 18 18 18 17 15 15 11 13 16 14 13 11 8 6 5 5 4 4 4 4 3 4 6 8 10 11 10 9 9 8 7 7 6 7 7 7 7 7 7 8 8 8 7 6 7 8 8 8 9 10 11 12 12 13 14 15 15 15
10 11 7 5 7 5 3 3 5 2 2 4 4 4 4 7 10 11 7 4 4 3 2 1 2 1 3 6 5 7 7 5 6 5 6 9 18 26 22 18 17 18 18 17 16 12 13 15 14 13 10 8 6 6 6 6 6 6 5 5 5 7 9 10 11 11 10 9 9 9 7 6 7 7 6 6 6 7 7 8 7 6 6 6 7 7 8 8 9 10 11 11 12 13 14 14 14
9 10 8 5 3 2 3 4 6 1 1 2 5 5 4 8 10 9 5 4 4 5 5 2 1 2 2 6 5 5 6 6 6 2 4 9 18 25 23 17 15 18 19 18 17 13 13 15 14 12 10 8 7 7 7 6 6 6 6 6 7 8 11 12 12 11 10 9 9 9 7 5 6 6 5 6 6 6 7 7 7 6 6 5 5 6 7 8 8 9 10 10 11 12 13 13 13
9 10 8 4 2 3 4 5 5 1 4 4 6 5 4 6 6 7 6 4 5 5 7 6 4 2 1 7 9 6 6 5 6 3 6 10 17 24 22 17 16 18 19 18 17 14 13 15 14 12 10 8 8 8 8 7 6 6 6 6 7 8 12 13 11 11 11 9 9 8 6 5 5 5 5 5 6 6 6 7 7 7 6 5 5 5 6 7 7 8 9 10 10 11 11 12 12
10 9 5 3 2 4 4 5 4 0 5 5 6 7 4 5 5 5 6 6 7 4 6 6 5 4 3 8 11 5 5 4 4 5 8 11 16 22 22 19 17 18 20 18 17 15 14 14 13 12 10 9 9 9 9 8 7 7 6 7 8 9 12 13 11 12 12 10 9 8 6 6 5 4 4 5 5 6 6 7 7 6 5 5 4 4 5 6 7 7 8 9 9 10 10 11 11
9 8 5 2 3 4 5 4 2 0 5 4 6 10 7 5 5 4 4 6 8 4 7 6 3 5 5 7 12 6 4 4 3 5 9 12 17 22 21 19 18 18 18 18 17 15 15 15 13 11 11 10 10 10 9 8 7 7 7 8 9 10 13 14 13 13 12 11 10 9 7 7 5 5 5 5 5 6 7 7 6 6 5 4 4 4 4 5 5 6 7 8 8 9 9 9 9
6 5 3 2 4 4 5 5 4 1 5 4 5 11 9 7 5 4 4 4 9 5 7 6 1 2 7 3 9 9 6 4 4 5 9 14 18 22 20 20 19 17 17 18 17 15 15 15 13 11 11 11 11 10 9 8 7 7 8 9 9 10 13 15 14 14 13 11 10 9 8 8 7 6 6 6 6 6 7 7 6 6 5 4 3 3 4 4 4 6 6 7 7 7 7 8 8
6 5 3 3 4 4 5 5 5 4 1 2 6 11 11 9 6 5 5 4 9 5 6 9 1 1 4 4 10 11 10 7 6 6 10 14 17 20 20 20 18 16 16 17 17 16 15 14 13 12 11 11 12 11 9 8 7 6 8 9 9 10 13 15 15 14 14 12 10 9 8 9 9 8 8 8 7 7 8 7 7 6 5 4 3 2 3 3 4 5 5 6 6 6 6 7 8
8 8 4 3 4 5 5 4 4 5 2 3 8 12 10 9 7 5 5 4 6 5 6 9 4 1 3 5 11 14 14 11 7 8 11 14 17 20 18 18 17 16 16 17 18 18 16 14 13 12 11 12 12 11 9 8 7 7 8 9 10 11 12 14 14 14 14 13 12 11 10 9 9 9 10 9 8 8 8 8 8 7 6 4 3 2 2 3 3 4 4 5 5 5 5 6 6
8 10 5 2 4 4 5 4 3 4 2 4 5 10 10 6 5 3 2 1 4 8 9 9 6 2 2 4 8 15 17 13 9 10 13 15 17 21 19 16 16 18 16 16 18 17 15 14 14 14 13 13 12 11 10 9 8 8 8 9 10 11 12 13 14 15 14 14 13 12 11 10 10 10 11 10 10 9 9 9 9 8 7 5 4 2 1 2 3 3 4 3 3 3 4 4 5
6 7 3 2 4 4 4 4 3 3 0 4 5 8 7 5 6 4 0 3 6 7 7 7 8 4 5 8 8 14 16 12 11 13 15 17 18 20 19 18 16 16 16 17 16 14 14 13 15 15 14 14 14 13 12 11 10 9 8 9 9 10 12 12 14 15 15 15 14 14 13 11 11 11 12 11 11 10 10 10 10 9 7 6 5 3 2 1 2 2 2 2 1 2 2 3 3
6 4 2 3 5 4 4 4 3 1 2 5 7 8 6 4 5 4 2 3 4 5 6 5 6 5 3 5 6 10 11 10 12 16 17 18 20 21 19 18 17 16 17 18 18 15 14 13 14 13 13 15 15 15 14 13 12 11 10 9 10 10 12 13 13 15 16 16 15 14 13 12 12 12 12 12 12 11 11 11 11 10 8 8 7 5 3 2 1 1 0 0 1 1 2 2 3
7 2 3 5 5 5 5 5 6 3 1 5 8 7 4 5 8 5 3 4 4 4 6 7 6 6 8 6 5 7 6 7 12 16 18 19 22 23 21 18 18 19 19 20 20 18 16 14 14 13 13 15 16 16 16 15 14 13 12 11 10 11 12 13 14 14 15 16 15 15 14 13 12 12 12 12 13 13 12 12 12 11 10 9 8 7 5 3 3 2 1 2 2 2 3 3 3
8 3 3 6 5 7 9 9 8 6 2 3 7 6 4 3 10 8 4 6 9 6 6 10 9 10 11 10 10 10 7 6 10 15 17 19 21 23 23 21 19 19 21 22 22 20 19 18 17 15 14 15 16 17 17 16 15 14 13 12 12 11 12 13 14 14 15 15 15 15 15 13 11 11 12 12 13 13 13 13 13 12 11 11 10 8 6 4 4 2 2 3 3 3 4 5 5
10 7 4 6 7 9 14 16 12 8 6 5 1 6 3 3 8 8 4 5 9 9 8 11 13 15 15 14 14 14 12 10 9 13 16 18 19 21 22 23 21 19 20 22 23 22 21 20 20 18 16 15 16 17 17 16 16 16 14 13 13 12 12 13 14 15 16 16 16 16 16 14 12 12 12 13 13 14 14 15 14 13 13 12 11 9 7 6 5 4 4 4 4 4 4 5 7
9 9 5 8 10 9 14 17 14 10 5 6 3 5 3 4 6 7 5 3 5 9 13 15 16 17 18 17 16 16 15 14 12 13 15 17 19 20 20 21 21 20 19 19 21 23 22 21 21 21 19 17 17 17 17 16 16 16 16 15 14 14 14 14 15 16 16 17 17 17 18 17 15 15 15 14 15 15 15 15 15 15 14 13 12 10 9 7 6 5 5 5 5 5 5 5 6
7 9 10 14 15 9 12 14 8 6 1 2 4 2 4 5 7 8 7 5 4 4 6 13 17 17 19 18 16 16 17 17 16 15 15 16 18 20 20 20 20 20 20 20 20 21 22 22 21 22 22 21 19 18 17 17 18 18 17 16 16 15 15 15 15 16 17 18 18 18 19 19 18 17 17 16 17 17 17 17 17 16 15 14 13 12 11 9 8 7 7 6 6 6 6 5 5
7 8 13 18 18 13 15 13 4 5 6 3 6 6 8 6 7 10 11 11 10 6 6 4 9 11 16 19 17 17 17 17 18 17 17 16 17 19 21 21 21 20 22 22 21 20 22 24 23 23 24 24 22 20 19 19 19 19 18 17 17 16 16 16 17 17 18 19 20 19 19 20 20 19 18 18 18 18 19 18 17 17 17 16 15 13 12 10 9 9 8 8 7 7 7 6 5
10 8 11 17 19 16 19 17 7 6 6 7 8 7 7 6 5 9 13 15 16 14 12 7 4 4 10 17 19 16 15 15 15 16 16 16 16 16 18 20 21 21 22 23 23 23 23 24 24 24 25 25 24 23 21 21 21 20 19 18 17 17 17 17 17 17 18 19 20 20 19 20 21 21 20 20 19 19 20 20 18 17 17 16 15 14 12 11 11 10 10 9 9 8 8 7 7
14 9 10 15 18 18 20 18 11 7 7 9 11 8 8 8 8 10 12 13 13 14 15 14 11 7 7 14 17 15 14 14 13 14 15 16 16 16 18 19 20 21 22 23 24 24 24 25 25 25 24 24 24 23 22 22 22 21 20 20 19 19 19 18 17 17 18 19 20 20 19 20 21 21 22 22 20 20 20 21 19 18 17 16 15 14 13 12 12 12 11 11 10 9 9 9 8
8 9 13 14 16 20 20 17 13 9 8 10 11 10 12 14 12 11 15 16 14 14 13 15 15 12 11 13 15 16 17 16 16 16 15 15 17 19 19 20 21 22 22 22 23 24 25 25 26 26 25 24 23 23 23 23 23 23 22 21 20 20 20 19 19 19 19 19 20 21 19 20 20 20 21 22 22 21 21 21 20 19 18 17 16 15 14 13 13 13 13 12 12 11 11 10 10
6 12 16 18 18 21 22 20 18 14 11 13 12 9 13 16 10 7 12 16 17 19 18 15 15 15 16 16 17 17 18 18 18 17 16 17 19 20 20 20 22 22 22 22 23 24 25 26 25 26 27 26 24 23 24 24 24 24 23 23 23 22 21 20 21 21 21 20 20 21 21 21 21 20 19 20 21 21 21 21 19 19 19 18 17 17 15 15 15 15 15 14 14 14 13 12 12
7 13 13 16 19 19 19 19 19 13 7 13 13 10 13 12 10 11 13 12 12 15 18 19 17 15 17 18 18 18 18 18 18 19 20 20 19 19 19 20 20 22 23 24 24 24 25 25 25 25 27 27 27 26 25 25 25 26 24 24 24 24 22 22 22 22 22 22 21 21 22 22 22 21 20 20 20 20 20 19 19 19 19 19 18 18 17 16 17 17 17 16 16 15 14 14 14
8 10 10 11 14 15 16 16 18 12 7 11 9 8 12 9 13 18 16 15 14 12 14 17 18 17 17 18 19 20 21 20 20 22 21 19 18 18 18 18 18 20 21 23 24 25 25 25 25 25 27 28 28 27 27 27 26 26 26 25 25 24 24 23 24 23 23 23 23 23 23 22 22 22 21 21 21 20 19 18 19 20 20 19 20 20 19 18 18 18 18 18 17 16 16 16 16
7 5 5 8 9 12 14 14 17 13 10 14 8 6 9 8 17 25 19 20 20 18 19 19 18 18 19 20 21 22 23 23 24 25 24 22 21 20 19 18 18 18 18 21 24 24 25 25 25 25 26 28 28 27 27 28 27 28 27 26 26 25 25 25 25 24 24 24 24 24 23 23 22 21 22 22 22 22 20 19 19 19 20 20 21 21 20 19 19 19 19 19 18 18 18 17 18
3 1 3 4 6 9 9 11 15 12 12 17 12 7 9 5 13 22 21 23 24 24 26 24 22 21 20 21 22 23 24 25 26 27 27 25 24 22 21 20 20 20 20 21 22 22 23 24 24 25 25 26 28 28 28 28 28 28 28 27 27 27 26 26 26 25 25 25 25 25 24 23 22 21 21 22 23 22 21 20 19 18 19 20 21 22 21 21 20 20 20 20 19 19 20 20 20
3 2 4 4 8 9 8 10 13 11 11 20 14 6 7 7 12 18 20 23 26 27 26 24 24 23 22 21 23 24 25 25 26 26 26 25 25 24 22 22 21 22 22 22 21 21 22 23 24 24 25 26 28 29 29 29 29 29 28 28 29 29 28 28 27 26 26 26 25 25 25 24 22 21 21 22 23 23 23 22 20 19 20 20 21 22 22 22 21 22 22 22 21 21 22 22 22
3 5 6 6 8 9 7 11 15 14 9 15 15 6 3 4 11 18 21 24 25 25 23 22 24 25 24 22 22 24 25 25 26 26 26 25 24 24 23 22 21 21 22 23 23 23 22 22 23 24 25 26 27 29 30 30 30 30 29 29 30 30 30 30 28 28 27 26 26 25 24 23 22 21 22 22 22 23 23 23 22 21 21 21 21 22 23 23 23 23 23 23 23 23 24 24 24
6 6 7 8 9 8 6 8 12 14 12 10 12 10 8 6 12 19 22 23 19 20 21 22 22 23 24 23 22 24 25 26 27 27 27 26 26 25 23 22 21 21 22 22 23 24 23 23 23 23 25 26 26 28 29 29 29 30 30 30 31 30 31 31 30 30 29 27 26 25 24 23 22 21 22 22 21 22 23 23 23 23 23 23 23 23 23 24 24 25 25 25 24 25 25 26 25
9 8 6 7 9 10 8 7 5 4 10 12 11 11 11 9 13 20 25 25 19 16 18 19 19 20 21 22 23 24 24 26 27 27 27 27 27 26 25 24 22 22 23 23 23 23 24 24 24 24 24 25 26 27 28 28 28 29 30 31 32 31 32 32 32 32 31 28 27 26 25 25 24 23 22 22 21 22 22 22 22 23 24 25 25 24 25 25 26 26 26 26 26 26 26 26 26
10 10 8 7 8 8 8 8 4 1 4 9 9 11 11 10 11 15 21 25 23 20 19 18 19 18 19 20 22 23 24 25 25 25 25 25 27 27 26 26 24 23 23 24 24 24 25 26 26 26 25 25 26 27 29 30 30 31 32 32 33 33 33 33 33 33 32 30 28 27 27 27 26 25 24 24 23 23 23 22 22 23 24 25 26 26 26 27 27 27 27 27 27 28 28 27 27
10 10 9 9 8 8 8 6 3 4 2 7 9 10 11 10 9 12 19 21 21 22 21 21 21 21 21 21 22 23 23 24 23 23 23 23 23 25 25 26 26 26 26 26 26 26 26 27 28 28 26 26 28 29 30 31 32 33 34 35 35 35 35 35 35 34 33 31 30 29 29 29 29 28 27 26 26 25 25 24 23 24 24 26 26 26 27 28 28 28 28 28 28 29 30 29 27
13 10 8 9 9 8 8 5 3 5 4 6 7 10 11 11 10 12 17 16 16 20 21 22 23 24 25 26 26 27 26 24 22 21 22 21 22 24 25 26 27 28 29 30 30 29 29 29 29 28 28 29 30 30 31 31 32 33 34 35 36 36 37 38 38 36 34 32 32 31 31 31 31 32 31 29 28 28 27 27 26 26 26 27 27 27 27 28 29 29 29 30 29 30 30 29 28
12 8 8 9 8 6 7 7 4 4 3 4 5 9 12 12 12 13 17 17 17 21 23 23 25 25 27 28 28 29 29 28 24 22 23 24 25 27 27 28 29 30 31 31 32 33 33 33 33 32 32 33 33 32 33 32 31 31 32 33 35 36 37 39 39 38 36 34 34 33 33 33 33 34 34 32 31 31 30 30 29 29 29 29 29 28 29 29 29 29 29 30 30 30 30 29 29
9 8 8 8 8 6 5 5 5 4 4 5 6 9 10 10 12 13 19 25 24 24 26 27 29 27 27 29 29 29 29 29 28 27 28 28 29 31 32 33 34 34 33 33 34 37 38 39 38 38 38 37 37 36 36 35 33 32 32 33 34 36 37 37 38 38 37 37 37 36 35 35 35 36 35 34 34 33 33 33 32 32 32 32 31 31 31 31 30 29 29 29 29 31 31 30 29
10 12 11 10 10 10 7 4 4 5 5 6 6 9 10 9 11 10 15 22 23 25 27 28 30 28 27 28 29 30 30 30 31 30 31 31 32 33 35 36 36 36 36 35 34 36 40 42 42 42 42 41 40 39 38 38 37 36 35 35 35 36 36 37 39 40 40 40 40 39 38 37 36 37 37 36 36 36 36 35 35 35 35 34 34 34 34 33 32 31 30 29 29 30 30 30 30
11 13 13 13 11 11 10 6 3 4 6 6 4 7 10 8 11 11 10 13 18 22 23 25 27 28 30 30 29 30 32 32 32 32 32 33 34 34 35 35 35 35 36 36 35 34 36 38 39 40 40 41 40 39 38 39 39 40 40 40 40 40 41 42 43 42 42 42 41 40 39 38 37 37 38 37 37 38 37 37 37 37 37 37 36 36 36 35 35 34 32 31 30 30 29 30 31
9 10 13 15 14 11 9 7 5 4 5 4 6 7 10 7 9 10 9 11 16 18 17 21 26 28 31 33 33 33 34 35 36 36 36 36 35 35 35 36 36 37 37 36 37 37 37 37 38 38 39 39 39 38 37 38 40 42 44 45 45 45 45 45 44 42 41 40 40 40 39 38 38 38 38 37 38 38 38 38 38 38 38 38 37 37 37 37 36 35 34 33 32 31 31 32 32
8 8 11 13 14 13 10 8 6 4 5 4 4 6 9 9 9 8 8 10 13 14 13 15 22 28 31 33 36 37 37 38 40 42 42 42 41 39 39 39 40 41 41 39 39 40 41 42 42 41 40 40 39 39 40 40 41 42 45 47 47 48 48 47 45 42 40 39 39 39 38 37 37 37 37 37 37 37 37 37 37 38 38 38 37 37 37 37 36 36 35 34 33 33 33 34 33
4 2 5 8 9 8 7 6 6 5 5 8 9 7 8 12 10 7 9 13 14 14 13 12 17 25 30 33 36 36 38 40 41 44 44 44 44 44 43 44 44 45 44 44 43 44 44 43 43 42 41 40 40 41 42 42 42 42 44 46 49 50 50 48 45 43 41 40 40 40 39 37 37 37 37 36 36 35 35 35 35 36 36 36 37 36 36 36 36 35 35 34 34 34 34 34 34
3 6 4 2 2 1 1 3 4 3 5 10 11 8 7 14 12 6 9 13 15 14 12 12 17 23 26 30 34 36 38 40 41 42 42 42 42 43 44 45 46 47 47 47 47 46 46 44 43 42 41 41 40 41 41 41 41 42 44 46 48 50 50 49 47 45 43 43 43 43 41 40 39 38 38 37 36 35 34 35 34 34 34 35 36 35 35 35 35 35 35 34 34 34 35 35 35
6 6 4 3 4 3 3 2 0 1 6 11 14 12 10 14 14 8 9 12 12 11 11 11 16 22 25 26 30 34 37 39 39 38 39 39 40 41 42 43 45 46 47 48 48 47 47 46 45 44 43 42 41 41 41 40 40 42 45 46 46 48 50 50 48 47 46 45 46 45 44 42 41 40 39 38 37 36 36 36 36 35 34 35 35 35 35 35 35 35 34 34 34 34 35 35 35
7 4 5 4 1 1 2 1 1 4 8 9 13 16 14 15 14 7 8 13 14 13 13 10 11 18 26 28 29 32 34 35 36 36 37 38 39 40 41 42 44 44 45 47 48 47 47 47 46 45 44 44 43 42 42 41 41 43 45 47 46 46 49 50 50 48 47 47 47 47 45 44 43 43 42 41 39 37 37 37 37 37 37 36 36 36 35 35 36 36 35 35 35 35 35 35 35
6 4 6 4 2 1 3 4 4 6 9 8 11 14 13 16 17 11 11 14 13 14 17 15 14 18 25 30 31 33 34 34 35 35 36 38 40 41 41 42 43 43 43 43 44 45 46 46 46 45 45 44 43 43 43 43 44 45 46 47 47 47 48 49 49 49 49 48 48 47 47 46 45 45 44 43 41 39 38 37 37 38 38 38 38 38 36 36 36 37 37 36 36 36 35 36 36
9 8 8 8 6 5 7 7 6 8 10 11 12 10 7 9 12 13 18 21 18 20 23 25 26 25 26 28 28 29 30 33 34 36 37 39 41 42 41 41 41 41 40 40 41 41 42 44 45 45 44 43 42 42 43 45 47 47 47 46 46 46 48 49 48 49 49 49 49 48 47 47 46 46 45 44 42 40 39 38 37 38 38 38 38 38 37 36 37 37 38 37 37 37 36 36 37
11 10 8 9 7 5 7 7 7 8 7 8 9 7 5 6 8 9 13 21 26 30 31 30 29 27 24 23 24 25 26 29 31 34 37 40 42 42 40 39 38 36 35 35 37 39 40 41 42 43 43 42 41 41 43 46 47 47 46 46 46 46 47 48 48 48 48 49 50 49 49 48 48 47 46 44 43 42 41 39 39 38 38 38 38 38 38 37 37 38 39 39 38 38 38 38 38
8 6 6 8 9 7 5 5 5 3 4 3 4 4 3 5 13 9 8 13 17 26 31 32 33 32 28 26 25 26 27 28 30 33 36 37 38 38 37 37 36 33 31 31 33 35 37 38 39 41 42 41 41 41 43 45 46 46 46 45 45 45 46 48 48 48 48 48 48 48 48 49 49 48 46 45 44 43 42 41 40 39 38 38 37 36 37 37 37 38 39 40 39 39 39 40 40
4 6 7 6 6 5 3 5 4 2 6 5 3 7 2 4 12 10 13 15 9 12 20 25 32 37 35 34 31 30 31 31 34 38 39 37 36 36 36 36 36 35 34 34 34 33 33 34 35 36 37 39 41 41 41 42 43 45 45 45 45 45 46 47 48 48 48 48 47 47 47 48 48 48 47 45 44 43 43 42 41 40 39 38 37 36 35 35 35 36 38 40 40 39 40 41 41
3 5 9 3 3 2 1 4 5 5 9 6 7 12 5 3 8 6 11 14 9 10 12 15 23 28 30 32 34 35 35 35 38 40 39 37 35 35 35 36 36 36 36 35 34 33 33 32 33 32 33 35 38 39 40 40 40 42 43 44 44 44 45 46 46 47 47 47 47 47 46 46 46 47 46 45 44 44 43 42 42 40 40 39 37 36 35 35 35 35 37 38 39 40 41 42 42
8 3 7 6 2 3 5 3 5 7 8 6 10 16 9 7 9 7 8 11 10 11 12 12 16 19 24 30 34 35 36 37 39 38 34 33 32 32 33 33 32 31 30 28 29 31 33 34 34 33 32 32 33 35 36 37 38 39 40 41 42 43 44 45 45 45 46 46 46 46 46 45 45 45 46 45 44 44 43 43 42 41 40 39 38 37 36 35 35 36 37 38 39 40 41 42 43
8 2 5 6 3 5 7 5 5 7 8 7 10 13 7 8 13 15 14 14 11 10 11 12 13 17 24 28 31 35 37 38 38 35 32 31 29 29 30 31 30 27 25 25 25 27 29 31 33 32 31 30 32 33 34 35 37 38 39 39 39 39 41 42 43 44 45 45 45 45 45 45 45 45 45 44 44 44 44 43 43 42 41 40 39 38 37 36 37 38 39 39 40 40 41 42 42
9 6 8 8 5 2 4 7 6 6 7 7 9 11 6 6 11 15 17 18 14 11 11 11 13 20 26 29 34 37 38 38 37 34 32 30 28 27 28 28 27 23 22 23 24 24 26 27 28 27 27 28 30 31 32 33 35 36 37 38 38 38 38 39 40 42 44 45 45 45 45 45 45 45 45 45 45 44 44 44 43 42 42 41 39 38 38 37 38 39 40 40 40 40 41 42 42
11 10 10 10 8 4 4 7 6 5 7 6 7 11 6 3 5 10 13 15 14 14 14 11 14 22 28 33 39 39 38 38 35 32 29 26 26 25 24 25 23 21 20 19 17 18 20 22 25 26 27 27 28 29 29 30 31 33 35 36 37 38 37 37 37 39 40 41 42 43 43 44 45 45 45 45 45 45 44 43 42 42 42 40 39 38 38 38 39 40 41 41 41 42 42 42 42
Wind_Direction
323 326 332 332 338 336 327 299 275 241 215 256 120 94 69 46 68 131 121 127 146 80 61 59 55 37 38 26 69 74 48 42 43 33 133 151 146 140 133 167 189 176 163 163 169 168 166 161 158 159 159 161 160 168 177 196 233 263 313 1 22 30 44 59 77 97 109 117 123 123 117 106 92 92 95 95 95 101 105 105 104 100 98 95 93 90 85 79 76 74 73 72 71 70 69 68 68
321 327 334 331 331 316 305 316 277 263 242 228 63 78 115 120 124 109 108 93 77 86 83 77 66 41 48 54 94 85 57 53 67 97 129 149 149 142 141 169 182 180 170 162 173 178 176 171 168 170 169 169 171 178 194 219 237 257 317 9 33 47 68 85 104 112 115 115 117 121 111 97 86 89 93 94 98 105 110 110 108 104 104 102 98 92 85 80 76 75 73 71 70 68 67 67 67
322 327 334 337 333 289 279 302 256 280 295 74 68 93 142 125 99 73 72 77 81 93 95 92 100 58 327 277 55 84 80 61 67 107 136 154 157 145 143 167 176 181 173 157 176 187 183 179 179 181 181 179 182 190 208 221 224 239 232 31 66 89 103 113 122 120 121 121 121 129 113 86 83 90 93 97 102 111 116 115 117 113 109 107 102 94 86 81 79 76 73 70 68 67 66 65 66
318 325 336 339 332 297 269 259 246 295 311 45 77 87 79 81 91 77 75 81 90 102 106 128 132 109 296 322 43 80 91 78 64 101 140 156 162 149 149 171 170 172 166 156 179 191 188 186 186 185 185 185 190 198 215 224 205 196 189 177 120 118 129 128 129 126 130 129 128 134 111 80 83 95 100 103 107 116 123 124 127 125 116 110 102 94 88 83 80 76 72 68 66 66 66 66 66
319 320 325 325 319 312 300 276 283 278 302 16 79 89 66 71 93 91 88 89 99 95 97 162 122 127 164 3 24 78 99 99 85 107 135 147 166 156 154 169 164 164 162 162 183 192 189 187 186 184 183 189 196 205 216 215 192 201 204 177 134 137 145 136 136 139 138 136 131 128 112 92 92 101 104 107 112 122 130 135 138 135 125 111 103 96 91 86 81 76 72 68 66 66 67 67 66
328 320 308 288 276 298 301 272 276 244 324 14 73 92 76 74 95 102 106 100 98 81 55 226 73 94 119 89 65 99 125 114 108 140 150 154 170 163 154 163 163 166 166 169 188 191 184 184 183 182 184 191 198 207 207 203 196 200 197 169 151 153 153 146 144 145 144 142 134 132 123 101 100 103 105 111 117 129 139 144 145 142 132 115 106 101 95 86 80 76 72 69 68 67 67 67 67
338 331 333 282 259 268 266 259 272 259 12 354 58 86 87 90 105 114 128 127 118 127 207 292 19 329 108 124 99 106 127 130 141 152 176 164 166 168 157 159 165 170 175 177 188 187 182 181 182 185 187 193 196 203 200 199 198 191 182 159 157 159 157 152 146 148 149 148 141 145 140 110 109 107 106 117 121 134 146 149 149 149 140 121 110 105 100 89 81 76 72 71 69 68 67 66 66
334 317 319 309 268 233 247 264 268 228 63 357 59 64 77 108 123 132 153 159 155 163 178 187 318 282 153 141 117 118 138 149 186 204 194 164 165 172 159 161 173 173 181 185 186 185 186 182 183 189 190 195 195 195 195 196 194 184 176 155 158 161 160 156 151 154 155 153 151 155 150 125 120 115 114 124 130 139 149 156 155 156 149 131 115 105 100 90 82 76 72 70 67 67 65 64 64
312 283 283 294 273 275 266 260 264 218 123 117 87 70 73 118 144 148 155 139 142 164 164 172 198 219 114 125 113 126 151 159 198 192 187 172 169 172 158 164 180 177 185 188 185 187 191 185 185 192 194 197 192 191 192 194 193 187 178 160 164 164 165 164 159 161 160 159 160 162 157 144 138 127 129 137 141 149 157 164 163 162 156 142 128 108 97 90 83 76 70 67 66 65 63 62 62
304 261 259 312 282 285 274 262 269 228 108 112 113 125 132 144 169 170 170 146 136 158 135 145 192 241 336 106 119 141 149 144 177 168 181 175 168 171 161 167 183 185 188 189 186 185 187 188 192 198 198 196 193 193 190 192 195 195 187 171 171 170 172 173 166 163 164 163 165 171 171 164 160 149 148 153 155 159 166 170 169 167 161 151 134 112 96 89 84 78 73 69 66 65 62 61 60
304 252 223 286 274 275 269 275 298 129 104 103 115 129 152 168 182 191 191 149 132 136 115 124 207 236 269 112 123 159 153 139 167 169 175 170 168 170 164 169 189 194 191 191 188 182 183 190 199 205 202 196 195 195 191 193 194 195 190 178 175 174 173 176 172 166 169 170 170 179 184 183 176 173 171 167 168 168 174 175 174 173 168 161 137 117 98 86 81 76 73 70 66 64 61 59 57
290 275 225 240 258 264 278 303 325 318 115 142 140 130 152 172 193 198 200 156 133 146 144 160 242 196 237 149 133 165 158 154 164 179 179 167 169 169 165 175 193 200 193 193 190 185 188 193 199 207 207 200 197 194 193 194 194 194 188 179 176 175 173 176 177 173 176 176 176 185 191 195 185 185 185 177 180 177 180 181 181 181 180 175 143 123 104 89 77 72 69 66 64 61 58 56 53
250 286 278 269 274 279 292 312 320 310 144 151 129 138 156 164 195 206 194 172 144 162 172 174 174 347 241 117 139 164 156 175 178 180 179 169 172 165 167 182 192 198 194 193 192 192 195 198 200 205 207 207 204 196 192 193 193 191 185 182 176 175 178 180 181 181 182 179 180 189 194 194 185 187 189 184 188 186 187 187 189 192 192 188 164 141 116 99 79 70 65 61 60 57 52 50 47
259 287 294 288 302 298 290 290 305 314 330 62 105 139 158 162 195 204 177 186 151 140 140 159 159 258 250 119 149 163 157 183 189 174 176 173 173 162 171 188 186 194 194 191 195 196 196 200 203 203 203 208 212 204 194 193 191 192 188 184 180 177 183 185 185 186 187 186 185 190 194 192 187 189 190 191 195 194 194 195 196 201 201 197 190 175 124 98 78 67 62 57 52 48 43 41 40
277 295 305 278 290 289 280 282 293 310 358 71 103 146 150 148 177 191 187 181 113 126 130 149 174 185 339 51 150 166 168 186 182 172 176 172 169 162 174 186 185 196 195 191 196 197 196 202 205 199 200 204 211 211 201 196 194 197 193 186 185 182 187 191 188 188 190 191 192 193 196 194 191 193 196 200 202 202 201 202 204 207 209 206 206 202 143 92 73 63 56 48 42 36 30 31 31
269 287 301 258 260 260 274 290 254 257 190 113 134 160 149 127 159 179 289 78 106 151 159 158 190 198 45 65 126 166 176 186 176 173 177 172 168 164 178 186 187 199 195 192 193 196 199 207 210 196 196 201 205 211 205 200 199 197 197 190 190 188 190 196 192 190 193 196 198 199 200 200 199 202 205 206 208 209 207 208 211 212 214 214 215 215 188 111 76 69 62 45 27 15 9 11 16
236 257 263 256 248 245 260 266 251 214 125 135 153 175 167 130 162 200 201 138 136 172 180 164 181 201 160 107 141 174 178 189 179 176 180 177 171 169 182 190 190 196 194 192 191 196 199 204 215 201 195 200 200 209 207 201 201 198 198 195 194 195 195 198 198 196 198 201 202 204 206 208 210 213 214 214 214 214 214 213 214 216 217 220 222 220 207 159 144 152 117 314 311 315 333 336 342
217 217 224 243 244 240 243 254 274 285 163 146 155 182 213 160 170 203 198 194 213 187 179 180 163 182 205 194 202 208 195 201 189 185 188 185 181 178 184 188 190 195 194 195 193 195 196 196 213 212 204 202 199 208 209 202 202 202 201 201 200 199 200 202 204 204 206 207 207 209 210 213 215 218 222 222 219 217 218 217 216 219 219 222 227 225 220 199 202 215 226 256 268 288 308 309 311
216 222 221 234 244 252 260 272 282 294 353 114 151 168 246 198 163 182 198 196 206 202 193 192 177 183 205 204 212 231 232 220 200 196 198 194 192 191 191 190 193 197 197 200 198 195 198 196 204 215 213 205 201 205 209 204 203 207 206 206 206 204 204 206 209 210 212 213 212 211 212 216 213 216 228 228 223 221 222 221 220 221 222 225 228 230 231 225 228 237 244 262 274 287 303 307 309
211 220 241 235 237 257 263 272 283 299 336 327 218 140 205 223 149 166 210 212 202 206 207 195 191 194 204 209 215 231 232 230 217 204 206 204 200 200 200 198 198 201 202 204 200 198 201 199 200 209 214 210 206 207 211 209 207 211 212 211 212 211 210 209 211 214 215 217 217 214 212 213 211 214 227 232 230 228 227 225 222 223 226 228 230 233 236 238 243 250 255 266 275 284 299 307 315
208 210 231 246 248 260 256 268 290 291 271 280 303 113 200 237 157 172 205 232 212 211 215 209 205 200 205 212 215 225 229 229 224 214 214 211 205 205 208 209 208 205 206 207 202 200 201 203 202 202 209 213 212 213 215 215 216 215 215 216 215 214 215 214 214 215 215 218 220 216 210 207 212 216 221 231 236 236 233 229 226 226 227 230 233 234 236 240 244 250 258 265 272 282 293 300 315
223 227 228 242 252 266 264 273 317 341 360 251 268 185 228 220 178 195 208 229 233 235 241 220 212 203 207 215 215 219 225 229 228 224 223 220 215 211 210 212 213 207 207 212 210 205 202 203 206 203 206 212 213 216 216 217 221 219 217 219 220 218 217 217 218 218 217 218 221 220 211 206 213 220 221 228 236 239 238 234 230 229 230 232 234 236 237 239 243 249 254 261 270 276 280 290 304
226 245 238 244 251 259 272 282 337 354 346 300 264 256 246 221 192 210 220 234 243 285 326 243 201 198 209 215 215 215 219 227 231 230 230 231 228 223 219 216 218 214 210 215 217 214 209 206 208 206 207 211 210 212 215 217 220 222 220 221 224 223 221 219 219 221 221 220 221 222 215 208 212 221 224 229 233 238 240 236 233 231 232 233 234 236 237 238 242 248 253 259 267 274 279 285 288
241 238 240 248 254 256 261 269 259 241 268 272 283 294 262 232 214 221 222 233 242 258 279 276 230 213 214 210 211 215 219 228 234 235 237 239 241 238 230 222 222 223 218 220 223 223 221 218 214 210 209 212 210 208 213 218 219 220 222 224 225 227 227 224 223 224 224 223 223 224 220 212 213 217 224 231 231 234 237 235 235 234 235 236 237 237 238 239 241 247 255 259 264 271 276 278 279
256 243 247 253 257 260 258 261 260 231 227 259 276 281 259 247 256 256 243 240 242 247 260 266 257 242 216 210 214 216 219 228 233 234 234 237 240 237 231 223 220 228 230 227 227 230 231 228 225 221 217 218 215 210 212 218 220 219 220 225 226 227 229 228 228 229 228 226 225 227 224 218 217 217 222 230 232 233 233 233 236 238 239 241 242 243 243 242 243 247 253 257 262 265 267 271 273
279 283 282 280 271 267 266 267 268 257 244 254 259 249 243 250 260 263 251 247 247 246 254 261 255 238 218 216 224 225 226 230 232 234 233 232 233 231 231 227 224 231 237 235 233 235 237 235 232 231 228 227 224 216 214 218 222 221 219 222 225 227 228 228 230 231 233 232 229 230 229 224 223 224 225 230 234 236 234 234 237 239 242 245 246 248 248 246 245 247 250 254 258 260 262 267 269
336 312 293 292 290 276 268 265 257 248 242 241 244 246 245 245 245 243 239 241 244 243 243 246 246 237 224 221 226 231 231 232 235 236 234 230 229 230 233 233 233 233 234 238 240 238 238 240 240 237 234 233 231 225 219 219 224 225 221 219 222 226 227 228 229 231 234 235 233 231 231 228 227 228 230 234 237 239 238 239 241 242 244 247 248 250 251 248 247 248 250 252 254 257 261 263 267
330 323 308 288 290 282 266 263 254 241 233 236 237 255 255 242 233 228 226 234 241 237 236 231 229 230 227 221 223 229 231 232 233 232 232 234 232 232 235 238 238 235 234 241 246 243 241 243 245 242 238 237 236 233 227 222 224 229 226 221 221 224 227 227 229 231 233 235 235 234 234 231 228 227 230 237 243 242 242 243 244 245 246 248 249 251 251 249 248 249 250 251 253 256 259 261 265
279 317 329 297 289 277 261 260 254 232 210 230 233 258 251 228 235 238 229 236 245 245 242 231 223 224 226 221 219 224 230 228 226 230 235 239 240 238 239 243 243 239 239 243 245 246 248 249 247 243 239 238 238 239 236 229 226 229 232 229 226 225 226 227 228 230 232 235 236 236 238 236 232 228 228 235 244 247 247 246 246 246 247 249 249 250 251 250 249 249 250 252 254 255 257 260 263
247 290 309 302 295 268 253 254 254 239 215 219 215 253 246 213 233 240 233 233 239 243 241 231 224 224 225 222 218 221 228 227 226 234 239 241 244 245 245 246 245 244 243 241 241 245 250 252 251 246 242 240 240 241 241 237 231 230 233 235 234 231 229 229 229 229 232 233 235 238 240 241 239 234 231 233 241 249 252 250 248 247 247 247 248 250 250 249 250 251 251 253 253 253 256 258 260
190 290 265 276 273 262 254 242 241 239 222 211 207 245 252 229 236 240 235 227 225 232 235 228 225 225 222 221 219 220 227 231 232 236 240 242 246 249 251 250 248 245 242 240 242 246 249 252 254 251 246 243 242 241 242 242 238 234 234 237 238 237 234 234 232 230 231 233 234 237 240 243 244 242 239 238 240 247 252 254 253 251 249 247 247 249 250 250 250 251 252 253 253 251 253 256 258
133 182 234 232 244 262 275 254 238 236 217 200 203 245 245 239 246 247 249 238 225 226 232 229 226 227 224 221 219 220 225 232 237 236 238 240 243 248 251 251 251 248 245 243 243 244 247 249 251 252 249 246 243 243 243 243 242 240 238 237 239 240 239 237 236 234 233 233 235 237 240 242 244 246 245 244 244 247 251 254 256 255 253 250 248 248 251 252 250 251 252 252 253 251 253 255 257
171 206 230 216 231 254 267 261 248 251 241 196 200 232 232 239 253 249 251 247 231 223 231 232 227 229 230 224 220 221 223 227 233 236 237 238 239 243 246 247 249 250 250 248 244 243 244 247 248 248 248 247 245 245 245 244 244 244 242 240 239 240 241 240 239 237 234 234 236 239 241 243 245 246 247 248 250 251 253 254 256 256 255 254 251 250 252 254 253 252 252 252 252 253 254 256 257
198 199 229 223 227 243 250 254 243 247 259 223 206 231 246 260 275 269 265 262 242 217 227 236 228 229 232 227 221 221 222 223 229 235 237 238 239 240 241 242 244 247 251 251 248 246 244 247 248 247 247 247 247 247 247 247 246 246 246 244 241 241 242 243 241 239 236 234 236 240 244 246 247 247 248 251 254 255 256 256 256 256 256 255 254 253 254 255 255 255 255 255 254 254 255 257 259
202 195 216 224 225 234 242 256 259 255 259 239 212 227 239 234 253 264 267 272 267 233 231 242 238 234 234 230 224 223 223 225 230 235 239 241 242 241 239 240 242 245 248 249 249 247 245 244 245 246 245 245 245 246 248 248 246 246 246 245 243 242 242 243 242 240 238 236 237 240 244 248 249 249 250 253 255 256 258 259 258 258 257 258 257 256 255 255 256 257 257 258 258 257 257 257 259
201 205 215 220 225 230 227 239 257 28 283 253 231 241 249 238 236 245 251 257 259 251 242 238 240 243 243 239 235 231 228 230 233 234 238 242 243 243 241 241 243 244 246 247 247 246 245 243 242 242 243 244 243 243 244 244 243 243 243 243 244 243 243 243 243 242 241 240 239 241 244 248 251 251 251 253 255 256 257 259 260 259 259 260 260 259 258 258 258 258 258 259 259 260 260 258 257
213 219 223 224 231 234 218 216 199 147 207 261 259 270 272 261 253 248 249 248 245 245 240 233 232 235 242 244 244 243 237 237 238 232 232 238 242 243 243 243 244 244 244 245 244 245 246 245 244 242 242 242 242 242 243 244 244 243 243 243 244 246 246 246 246 245 244 243 243 243 245 248 251 252 252 252 254 256 256 257 258 259 259 260 262 263 262 260 259 258 257 257 257 258 261 262 260
225 226 226 228 230 238 230 216 167 148 189 252 259 275 276 273 277 266 259 253 242 240 239 239 234 228 235 240 239 243 243 242 239 229 223 226 234 240 242 244 245 246 246 245 245 244 244 245 247 247 246 244 244 244 244 246 248 248 249 248 248 249 250 251 251 250 249 248 247 246 246 248 249 252 253 252 253 256 257 256 257 258 258 259 261 262 262 261 260 258 257 256 256 257 259 261 261
229 228 232 237 223 228 238 223 199 160 194 250 248 261 265 264 269 269 267 263 256 249 244 245 241 230 229 233 234 236 239 239 237 230 225 225 232 237 241 245 249 253 251 249 248 246 243 244 247 250 251 250 249 247 246 247 250 252 254 253 251 250 251 253 254 254 254 253 252 251 249 249 248 250 253 254 255 256 257 258 258 258 258 259 260 260 261 261 261 260 260 260 259 259 259 259 258
229 228 232 241 225 222 232 210 202 201 226 256 255 260 263 256 253 255 260 264 267 262 253 248 244 236 230 228 228 231 235 236 234 233 233 234 235 237 241 248 252 253 251 250 249 245 243 244 246 249 251 253 253 252 251 250 251 251 252 252 251 249 250 251 252 254 255 255 255 254 252 251 250 251 254 256 257 257 258 258 259 259 259 260 260 261 261 262 262 262 262 263 261 260 261 262 260
225 225 228 239 233 232 238 218 209 218 236 253 264 273 264 245 243 244 248 258 264 262 259 252 244 241 243 236 228 228 231 234 234 233 235 236 237 238 243 249 251 251 250 251 250 245 242 243 246 248 251 252 253 253 253 251 249 247 245 243 242 242 243 243 245 248 251 253 255 255 255 254 254 255 256 257 258 258 258 258 259 259 259 260 260 261 262 263 262 262 261 262 262 262 263 266 264
228 222 226 237 236 233 237 239 238 242 246 224 210 267 270 235 232 237 231 241 250 250 251 249 241 239 244 243 235 231 231 232 234 234 235 237 239 240 243 246 248 249 251 252 249 246 243 243 245 248 251 252 252 252 251 250 248 247 245 241 238 238 240 242 245 249 252 254 256 258 258 258 257 257 257 257 258 258 258 258 259 259 259 260 260 260 261 261 261 261 261 260 262 262 261 261 261
230 211 211 227 236 236 232 228 224 237 256 214 168 238 270 252 224 228 223 229 238 239 241 243 242 240 240 240 239 237 235 234 235 236 238 238 239 239 241 244 246 249 254 255 250 245 244 245 247 248 250 251 251 249 248 248 248 248 247 245 244 245 247 249 252 254 255 256 257 258 259 260 260 259 259 258 257 258 258 258 259 260 261 261 261 260 260 260 262 263 262 261 261 260 258 256 257
227 207 196 209 222 228 229 230 233 245 271 268 216 233 272 269 241 231 240 248 245 240 239 238 238 239 238 238 239 240 239 238 239 240 241 241 240 238 239 243 247 251 256 256 251 248 248 248 249 250 250 251 250 248 248 249 250 249 248 247 247 248 250 253 255 255 255 256 256 257 258 259 259 259 259 258 257 258 258 259 259 260 261 262 261 261 261 261 262 262 262 261 260 258 256 256 257
227 161 179 201 212 221 224 229 240 253 259 259 243 227 265 271 252 221 230 247 252 249 247 244 239 236 235 235 238 240 241 243 244 245 245 245 243 242 241 243 246 250 254 254 253 253 252 250 249 248 247 248 249 249 249 250 251 251 249 249 248 249 250 251 251 252 253 254 255 256 257 257 257 258 258 257 257 257 258 259 260 260 261 261 261 260 261 261 260 261 261 261 260 259 258 257 258
145 93 121 149 75 83 201 223 243 254 243 247 241 217 244 270 261 216 213 233 241 246 247 248 249 245 239 233 233 237 241 244 246 246 247 248 248 248 247 247 246 247 249 251 253 254 252 249 247 246 246 247 248 249 250 250 251 251 249 249 248 248 249 248 247 248 250 251 252 253 254 254 255 255 256 256 256 257 258 258 259 259 260 260 260 259 258 258 259 260 261 262 262 261 260 258 258
129 115 150 100 63 57 48 46 29 283 243 241 240 222 223 263 263 225 218 235 236 241 240 235 240 246 249 241 235 236 239 241 243 245 248 250 252 252 252 250 249 247 246 247 249 250 250 249 246 245 246 248 248 249 249 250 250 250 249 250 249 249 248 246 245 246 247 248 249 251 253 253 254 255 256 256 256 256 257 257 258 258 258 258 258 257 256 256 257 258 260 261 261 261 261 260 259
133 149 166 132 93 29 25 40 173 239 242 235 234 224 217 246 258 226 220 234 230 236 239 231 223 231 241 244 242 242 241 241 243 245 249 251 253 253 251 251 251 249 246 243 244 245 246 247 246 245 246 247 248 248 248 248 248 249 250 250 250 250 248 245 246 247 248 249 250 251 251 251 253 254 254 255 255 256 255 256 257 257 257 256 256 256 255 254 254 255 257 257 258 259 260 260 259
156 169 142 151 194 191 223 220 212 234 241 230 220 215 212 240 255 249 243 238 225 232 237 233 230 226 232 238 242 245 243 244 245 246 249 251 253 252 251 251 251 249 247 244 243 244 244 245 245 244 246 247 248 247 246 246 246 247 249 251 251 250 248 246 247 248 248 249 250 249 249 251 252 253 254 256 257 256 255 256 258 259 259 258 257 257 255 254 253 253 255 255 256 257 258 259 260
184 185 164 184 195 210 225 222 228 235 239 232 217 212 215 245 255 237 238 244 235 236 235 232 236 236 232 232 237 243 243 244 246 247 249 251 253 253 251 252 251 249 248 248 246 245 244 244 244 245 247 248 247 246 245 245 245 246 248 251 252 251 249 248 248 249 248 248 247 248 250 252 254 255 257 259 260 258 256 257 261 263 262 261 259 258 256 255 253 253 254 254 255 256 256 257 259
197 194 187 200 192 211 223 215 226 235 249 235 208 208 196 217 242 220 229 242 232 231 234 234 236 234 230 231 233 239 245 247 247 247 250 252 253 253 251 251 251 250 250 250 249 247 245 245 245 246 247 247 245 244 244 244 245 247 248 249 251 252 252 251 250 250 249 248 247 248 250 252 254 256 259 260 260 259 258 259 263 264 263 262 260 259 258 256 254 253 252 253 254 254 254 255 256
208 189 189 212 205 215 240 235 221 220 285 252 188 228 198 235 267 260 256 256 231 225 229 231 236 236 237 245 243 239 241 243 245 248 251 254 255 254 251 250 250 251 252 253 253 250 246 246 245 246 247 247 245 245 245 245 247 247 248 249 251 252 252 252 250 250 249 249 249 250 252 253 254 256 258 258 259 259 259 260 262 263 263 262 261 259 258 257 256 254 251 251 251 252 253 254 254
193 193 202 212 203 204 245 265 251 248 269 253 224 264 283 303 280 253 243 255 237 218 221 222 231 233 235 242 242 237 235 237 244 250 253 256 257 254 251 250 251 253 257 259 259 254 250 248 248 248 248 247 246 245 246 247 247 247 247 249 249 250 251 252 251 251 250 250 250 250 251 252 252 254 255 256 257 258 259 260 261 261 261 262 261 258 256 256 255 254 252 250 250 251 252 253 254
178 196 200 167 56 94 194 262 255 246 258 250 243 257 241 232 270 229 221 236 218 214 220 215 222 222 223 228 229 230 233 238 246 249 250 252 254 254 254 254 255 258 261 261 260 257 254 253 252 252 251 249 247 246 246 246 247 247 247 248 248 249 251 252 252 252 251 249 249 249 250 251 252 252 253 253 255 256 257 258 259 259 260 260 259 256 255 254 253 253 252 250 249 249 250 252 253
207 163 177 161 109 191 191 230 233 229 249 249 245 251 232 211 251 255 237 233 216 215 219 216 218 214 214 219 222 228 232 237 242 243 244 248 252 255 255 256 257 260 262 261 260 258 255 253 251 251 253 252 248 246 245 246 246 247 247 248 249 250 251 252 252 251 251 250 251 251 251 252 252 251 251 252 253 254 255 256 257 257 258 258 257 255 253 252 251 252 252 250 249 249 250 252 252
205 145 171 178 191 205 195 202 220 227 240 246 249 252 225 207 240 251 251 245 232 218 213 215 217 210 211 218 224 229 230 233 237 239 244 249 254 256 255 256 260 261 261 260 259 257 254 251 249 248 251 251 247 244 244 245 245 245 246 247 249 251 252 252 251 250 250 251 253 253 252 252 251 250 250 251 252 254 254 255 255 256 257 256 255 253 252 251 250 251 251 251 251 250 251 252 252
192 198 204 198 193 204 201 201 208 224 231 235 250 254 228 195 226 235 240 243 239 229 219 212 213 211 212 220 227 229 231 234 238 240 242 245 251 259 259 260 261 259 257 258 259 260 256 246 241 243 246 247 245 244 245 246 247 247 247 248 249 251 252 252 251 250 251 253 254 254 253 252 250 250 250 250 251 253 253 254 254 255 255 255 254 253 252 251 250 251 251 252 253 252 252 253 253
193 204 207 207 200 184 210 216 206 218 236 231 246 260 255 204 231 232 234 241 238 232 226 209 205 207 211 224 233 234 234 235 237 237 236 237 244 256 261 262 261 257 256 261 267 270 260 243 235 236 240 241 241 243 244 245 246 247 248 249 249 250 250 251 252 251 252 253 253 254 253 252 251 251 251 250 251 252 252 252 253 254 254 254 254 254 253 252 251 251 251 253 254 254 254 254 254